Location: Pollockville
(51.1000°N, 111.5833°W)
Time: 10:02:02
(UTC+00:00)

ISS - Visible Passes

Search period start: 02 December 2021 00:00
Search period end: 12 December 2021 00:00
Orbit: 417 x 423 km, 51.6° (Epoch: 02 December)

Date Brightness Start Highest point End Pass type
(mag) Time Alt. Az. Time Alt. Az. Time Alt. Az.
02 Dec -3.7 01:28:35 10° W 01:32:00 75° SSW 01:32:21 65° SE visible
03 Dec -3.8 00:41:23 10° W 00:44:48 88° SSW 00:47:13 18° ESE visible
03 Dec -1.4 02:18:21 10° W 02:20:13 24° WSW 02:20:13 24° WSW visible
04 Dec -2.8 01:31:04 10° W 01:34:20 43° SSW 01:35:10 35° SSE visible
05 Dec -3.2 00:43:50 10° W 00:47:11 58° SSW 00:50:16 12° ESE visible
05 Dec -1.0 02:21:21 10° W 02:23:17 16° SW 02:23:17 16° SW visible
05 Dec -3.5 23:56:36 10° W 00:00:00 74° SSW 00:03:23 10° ESE visible
06 Dec -1.4 01:33:45 10° W 01:36:28 22° SW 01:38:35 13° S visible
07 Dec -1.9 00:46:20 10° W 00:49:23 31° SSW 00:52:26 10° SSE visible
07 Dec -2.4 23:59:00 10° W 00:02:15 43° SSW 00:05:29 10° SE visible
08 Dec -0.4 01:37:40 10° WSW 01:38:24 11° SW 01:39:08 10° SSW visible
09 Dec -0.7 00:49:17 10° WSW 00:51:23 16° SW 00:53:30 10° S visible
10 Dec -0.9 00:01:37 10° W 00:04:19 22° SW 00:07:01 10° SSE visible
